When you browse on this site, cookies collect data to enhance your experience and personalize the content and advertising you see.
Visit our Privacy Policy to learn more. By continuing to use the site, you agree to this use of cookies and data.
EN

Hourly Weather St. Moritz

Today, 8 August, Saturday

Time Temperature Precipitation Wind Pressure Humidity
00:00 +10°C° 0 mm 0 mps 609 mmHg 95%
01:00 +10°C° 0 mm 0 mps 609 mmHg 95%
02:00 +9°C° 0 mm 0 mps 609 mmHg 95%
03:00 +9°C° 0 mm 0 mps 609 mmHg 95%
04:00 +9°C° 0 mm 0 mps 608 mmHg 95%
05:00 +10°C° 0 mm 0 mps 609 mmHg 91%
06:00 +12°C° 0 mm 0 mps 610 mmHg 86%
07:00 +14°C° 0 mm 0 mps 611 mmHg 81%
08:00 +16°C° 0 mm 1 mps 611 mmHg 70%
09:00 +19°C° 0 mm 1 mps 612 mmHg 59%
10:00 +20°C° 0 mm 1 mps 613 mmHg 48%
11:00 +21°C° 0 mm 1 mps 613 mmHg 46%
12:00 +22°C° 0 mm 1 mps 613 mmHg 43%
13:00 +23°C° 0 mm 2 mps 613 mmHg 41%
14:00 +23°C° 0.2 mm 2 mps 613 mmHg 44%
15:00 +21°C° 0.2 mm 2 mps 613 mmHg 47%
16:00 +21°C° 0.2 mm 2 mps 612 mmHg 50%
17:00 +20°C° 0.3 mm 2 mps 612 mmHg 60%
18:00 +19°C° 0.3 mm 1 mps 611 mmHg 69%
19:00 +18°C° 0.3 mm 1 mps 611 mmHg 79%
20:00 +15°C° 0 mm 1 mps 610 mmHg 83%
21:00 +14°C° 0 mm 1 mps 610 mmHg 87%
22:00 +11°C° 0 mm 0 mps 609 mmHg 91%
23:00 +11°C° 0 mm 0 mps 609 mmHg 91%

Tomorrow, 9 August, Sunday

Time Temperature Precipitation Wind Pressure Humidity
00:00 +10°C° 0 mm 0 mps 608 mmHg 91%
01:00 +10°C° 0 mm 0 mps 608 mmHg 91%
02:00 +10°C° 0 mm 0 mps 608 mmHg 91%
03:00 +10°C° 0 mm 0 mps 608 mmHg 91%
04:00 +10°C° 0 mm 1 mps 608 mmHg 91%
05:00 +11°C° 0 mm 0 mps 608 mmHg 87%
06:00 +13°C° 0 mm 0 mps 609 mmHg 83%
07:00 +14°C° 0 mm 0 mps 610 mmHg 79%
08:00 +16°C° 0 mm 0 mps 610 mmHg 70%
09:00 +19°C° 0 mm 1 mps 611 mmHg 61%
10:00 +21°C° 0 mm 1 mps 611 mmHg 52%
11:00 +22°C° 0.1 mm 1 mps 611 mmHg 49%
12:00 +22°C° 0.1 mm 1 mps 611 mmHg 47%
13:00 +23°C° 0.1 mm 1 mps 611 mmHg 44%
14:00 +23°C° 0.5 mm 2 mps 611 mmHg 47%
15:00 +21°C° 0.5 mm 2 mps 611 mmHg 49%
16:00 +21°C° 0.5 mm 2 mps 610 mmHg 51%
17:00 +20°C° 0.4 mm 2 mps 610 mmHg 61%
18:00 +19°C° 0.4 mm 1 mps 609 mmHg 70%
19:00 +18°C° 0.4 mm 1 mps 609 mmHg 79%
20:00 +15°C° 0.1 mm 1 mps 608 mmHg 83%
21:00 +13°C° 0.1 mm 0 mps 608 mmHg 87%
22:00 +11°C° 0.1 mm 0 mps 607 mmHg 90%
23:00 +11°C° 0.1 mm 0 mps 607 mmHg 90%

Day after tomorrow, 10 August, Monday

Time Temperature Precipitation Wind Pressure Humidity
00:00 +12°C° 0.1 mm 1 mps 607 mmHg 90%
01:00 +12°C° 0.1 mm 1 mps 607 mmHg 90%
02:00 +12°C° 0 mm 1 mps 607 mmHg 90%
03:00 +11°C° 0 mm 1 mps 606 mmHg 91%
04:00 +11°C° 0 mm 1 mps 606 mmHg 91%
05:00 +12°C° 0 mm 1 mps 607 mmHg 88%
06:00 +14°C° 0 mm 1 mps 607 mmHg 85%
07:00 +15°C° 0 mm 1 mps 608 mmHg 81%
08:00 +16°C° 0 mm 1 mps 608 mmHg 74%
09:00 +19°C° 0 mm 1 mps 609 mmHg 68%
10:00 +20°C° 0 mm 1 mps 609 mmHg 61%
11:00 +21°C° 0.2 mm 1 mps 609 mmHg 60%
12:00 +20°C° 0.2 mm 2 mps 609 mmHg 59%
13:00 +21°C° 0.2 mm 2 mps 609 mmHg 57%
14:00 +21°C° 1 mm 2 mps 609 mmHg 59%
15:00 +20°C° 1 mm 2 mps 609 mmHg 62%
16:00 +20°C° 1 mm 2 mps 609 mmHg 64%
17:00 +20°C° 1.3 mm 1 mps 608 mmHg 70%
18:00 +19°C° 1.3 mm 1 mps 608 mmHg 76%
19:00 +16°C° 1.3 mm 0 mps 608 mmHg 83%
20:00 +15°C° 0.4 mm 0 mps 607 mmHg 84%
21:00 +14°C° 0.4 mm 0 mps 607 mmHg 85%
22:00 +12°C° 0.4 mm 0 mps 607 mmHg 85%
23:00 +12°C° 0.3 mm 0 mps 607 mmHg 86%

11 August, Tuesday

Time Temperature Precipitation Wind Pressure Humidity
00:00 +11°C° 0.3 mm 0 mps 607 mmHg 86%
01:00 +11°C° 0.3 mm 0 mps 607 mmHg 87%
02:00 +11°C° 0.1 mm 0 mps 606 mmHg 87%
03:00 +10°C° 0.1 mm 0 mps 606 mmHg 87%
04:00 +10°C° 0.1 mm 0 mps 606 mmHg 87%
05:00 +12°C° 0 mm 0 mps 607 mmHg 83%
06:00 +13°C° 0 mm 0 mps 608 mmHg 79%
07:00 +15°C° 0 mm 0 mps 608 mmHg 74%
08:00 +16°C° 0.3 mm 0 mps 609 mmHg 71%
09:00 +19°C° 0.3 mm 1 mps 609 mmHg 68%
10:00 +20°C° 0.3 mm 1 mps 610 mmHg 65%
11:00 +21°C° 1.1 mm 1 mps 610 mmHg 64%
12:00 +21°C° 1.1 mm 1 mps 610 mmHg 64%
13:00 +21°C° 1.1 mm 1 mps 610 mmHg 63%
14:00 +20°C° 1.6 mm 1 mps 609 mmHg 69%
15:00 +19°C° 1.6 mm 1 mps 609 mmHg 74%
16:00 +18°C° 1.6 mm 1 mps 609 mmHg 80%
17:00 +16°C° 2 mm 1 mps 608 mmHg 83%
18:00 +15°C° 2 mm 2 mps 608 mmHg 86%
19:00 +14°C° 2 mm 2 mps 607 mmHg 90%
20:00 +13°C° 0.2 mm 2 mps 607 mmHg 90%
21:00 +13°C° 0.2 mm 1 mps 607 mmHg 89%
22:00 +12°C° 0.2 mm 1 mps 607 mmHg 89%
23:00 +12°C° 0 mm 1 mps 607 mmHg 87%

12 August, Wednesday

Time Temperature Precipitation Wind Pressure Humidity
00:00 +12°C° 0 mm 1 mps 607 mmHg 86%
01:00 +12°C° 0 mm 1 mps 607 mmHg 84%
02:00 +11°C° 0 mm 1 mps 607 mmHg 83%
03:00 +10°C° 0 mm 0 mps 606 mmHg 83%
04:00 +10°C° 0 mm 0 mps 606 mmHg 82%
05:00 +11°C° 0 mm 0 mps 607 mmHg 79%
06:00 +14°C° 0 mm 1 mps 607 mmHg 75%
07:00 +15°C° 0 mm 1 mps 608 mmHg 72%
08:00 +18°C° 0 mm 1 mps 609 mmHg 66%
09:00 +19°C° 0 mm 1 mps 609 mmHg 61%
10:00 +21°C° 0 mm 1 mps 610 mmHg 55%
11:00 +21°C° 0.1 mm 1 mps 610 mmHg 52%
12:00 +22°C° 0.1 mm 1 mps 610 mmHg 50%
13:00 +23°C° 0.1 mm 1 mps 610 mmHg 48%
14:00 +23°C° 0.6 mm 1 mps 610 mmHg 52%
15:00 +22°C° 0.6 mm 1 mps 610 mmHg 56%
16:00 +21°C° 0.6 mm 2 mps 609 mmHg 61%
17:00 +20°C° 1.1 mm 1 mps 609 mmHg 68%
18:00 +19°C° 1.1 mm 1 mps 608 mmHg 76%
19:00 +18°C° 1.1 mm 1 mps 608 mmHg 83%
20:00 +16°C° 0.9 mm 1 mps 608 mmHg 84%
21:00 +15°C° 0.9 mm 1 mps 607 mmHg 85%
22:00 +14°C° 0.9 mm 1 mps 607 mmHg 86%
23:00 +14°C° 0.8 mm 1 mps 607 mmHg 87%

13 August, Thursday

Time Temperature Precipitation Wind Pressure Humidity
00:00 +14°C° 0.8 mm 1 mps 607 mmHg 87%
01:00 +14°C° 0.8 mm 1 mps 607 mmHg 88%
02:00 +13°C° 0.8 mm 1 mps 607 mmHg 87%
03:00 +13°C° 0.8 mm 1 mps 607 mmHg 87%
04:00 +13°C° 0.8 mm 1 mps 607 mmHg 86%
05:00 +14°C° 0.3 mm 1 mps 608 mmHg 86%
06:00 +14°C° 0.3 mm 1 mps 608 mmHg 86%
07:00 +15°C° 0.3 mm 1 mps 608 mmHg 86%
08:00 +16°C° 0.2 mm 1 mps 609 mmHg 78%
09:00 +18°C° 0.2 mm 1 mps 609 mmHg 70%
10:00 +20°C° 0.2 mm 1 mps 610 mmHg 62%
11:00 +20°C° 0.8 mm 1 mps 610 mmHg 61%
12:00 +21°C° 0.8 mm 1 mps 610 mmHg 59%
13:00 +21°C° 0.8 mm 1 mps 610 mmHg 58%
14:00 +21°C° 1.8 mm 1 mps 610 mmHg 62%
15:00 +20°C° 1.8 mm 1 mps 609 mmHg 65%
16:00 +20°C° 1.8 mm 1 mps 609 mmHg 69%
17:00 +18°C° 1.2 mm 1 mps 609 mmHg 75%
18:00 +16°C° 1.2 mm 1 mps 608 mmHg 82%
19:00 +15°C° 1.2 mm 2 mps 608 mmHg 88%
20:00 +14°C° 0.3 mm 2 mps 608 mmHg 88%
21:00 +13°C° 0.3 mm 2 mps 608 mmHg 88%
22:00 +13°C° 0.3 mm 2 mps 608 mmHg 88%
23:00 +12°C° 0.2 mm 2 mps 608 mmHg 88%
Show more